[Iaude] MPEC V46: 2023 VC1 [a=0.91,e=0.14,i=5.4,H=26.4]
    mpec at marsden.cfa.harvard.edu 
    mpec at marsden.cfa.harvard.edu
       
    Sun Nov  5 08:19:45 EST 2023
    
    
  
M.P.E.C. 2023-V46                              Issued 2023 November 5, 13:17 UT
     The Minor Planet Electronic Circulars contain information on unusual
         minor planets, routine data on comets and natural satellites,
         and occasional editorial announcements.  They are published
    on behalf of Division F of the International Astronomical Union by the
          Minor Planet Center, Smithsonian Astrophysical Observatory,
                          Cambridge, MA 02138, U.S.A.
			  
             Prepared using the Tamkin Foundation Computer Network
                              MPC at CFA.HARVARD.EDU
            URL https://www.minorplanetcenter.net/    ISSN 1523-6714
                                    2023 VC1                                    
Observations:
     K23V01C* C2023 11 03.33037500 42 41.506-02 23 06.80         20.39wXEV046F51
     K23V01C  C2023 11 03.34236500 42 40.285-02 24 52.19         20.34wXEV046F51
     K23V01C  C2023 11 03.35435000 42 39.049-02 26 37.84         20.42wXEV046F51
     K23V01C  C2023 11 03.36631500 42 37.821-02 28 22.99         20.20wXEV046F51
     K23V01C  C2023 11 03.44174300 42 30.713-02 39 19.63         20.09GVEV046F51
     K23V01C  C2023 11 03.44255500 42 30.649-02 39 26.74         19.95GVEV046F51
     K23V01C KC2023 11 04.15234700 42 47.07 -04 18 23.3          20.2 GXEV046858
     K23V01C KC2023 11 04.15910700 42 46.56 -04 19 16.7          20.2 GXEV046858
     K23V01C KC2023 11 04.16529200 42 46.05 -04 20 05.9          20.0 GXEV046858
     K23V01C mC2023 11 04.16980600 42 46.951-04 20 31.78         20.17GVEV046I52
     K23V01C mC2023 11 04.17026500 42 46.933-04 20 35.23         19.95GVEV046I52
     K23V01C mC2023 11 04.17072300 42 46.933-04 20 38.98         20.58GVEV046I52
     K23V01C mC2023 11 04.17118500 42 46.868-04 20 42.58         20.50GVEV046I52
     K23V01C  C2023 11 04.36874300 42 41.324-04 45 35.68         20.27GVEV046F51
     K23V01C  C2023 11 04.36938500 42 41.264-04 45 40.52         20.38GVEV046F51
     K23V01C KC2023 11 05.16706600 42 48.09 -06 23 37.6          20.5 GVEV046H21
     K23V01C KC2023 11 05.16995500 42 47.90 -06 23 57.5          20.5 GVEV046H21
     K23V01C KC2023 11 05.17284300 42 47.70 -06 24 17.3          20.5 GVEV046H21
     K23V01C KC2023 11 05.17573200 42 47.51 -06 24 37.4          20.5 GVEV046H21
     K23V01C KC2023 11 05.17910200 42 47.26 -06 25 00.4          20.6 GVEV046H21
Observer details:
858 Tebbutt Observatory, Edgewood.  Observer F. B. Zoltowski.  0.51-m f/8.1
    Schmidt-Cassegrain + CCD.
F51 Pan-STARRS 1, Haleakala.  Observers J. Bulger, T. Lowe, P. Minguez, A.
    Schultz, I. Smith.  Measurers K. Chambers, T. de Boer, J. Fairlamb, H.
    Gao, M. Huber, C.-C. Lin, E. Magnier, Y. Ramanjooloo, R. Wainscoat, R.
    Weryk.  1.8-m Ritchey-Chretien + CCD.
H21 Astronomical Research Observatory, Westfield.  Observer R. Holmes.
    Measurers T. Linder, R. Holmes, L. Horn.  1.3-m f/4.0 astrograph + CCD.
I52 Steward Observatory, Mt. Lemmon Station.  Observer D. Rankin.  Measurers
    E. C. Beshore, D. Fay, J. B. Fazekas, D. C. Fuls, A. R. Gibbs, A. D.
    Grauer, H. Groeller, J. K. Hogan, R. A. Kowalski, S. M. Larson, G. J.
    Leonard, D. Rankin, R. L. Seaman, F. C. Shelly, K. W. Wierzchos.  1.0-m
    prime focus + CCD.
Orbital elements:
2023 VC1                                                 Earth MOID = 0.0183 AU
Epoch 2023 Sept. 13.0 TT = JDT 2460200.5                Veres                   
M  93.19970              (2000.0)            P               Q                  
n   1.13895864     Peri.   23.82338     -0.48190341     +0.87434259             
a   0.9080939      Node   217.43853     -0.81832766     -0.47251001             
e   0.1364673      Incl.    5.41753     -0.31322348     -0.11072179             
P   0.87           H   26.40          G   0.15           U   7                  
Residuals in seconds of arc
231103 F51  0.0   0.1-    231104 858  1.0-  0.1-    231104 F51  0.0   0.1+
231103 F51  0.2+  0.2+    231104 858  1.4-  0.4-    231105 H21  0.1-  0.1-
231103 F51  0.1+  0.0     231104 I52  0.3-  0.1-    231105 H21  0.1+  0.0
231103 F51  0.0   0.1-    231104 I52  0.0   0.1+    231105 H21  0.1+  0.1+
231103 F51  0.0   0.1+    231104 I52  0.5+  0.0     231105 H21  0.2+  0.1-
231103 F51  0.1+  0.1+    231104 I52  0.1+  0.0     231105 H21  0.1-  0.1+
231104 858  1.4-  0.3-    231104 F51  0.0   0.0
Ephemeris:
2023 VC1                 a,e,i = 0.91, 0.14, 5                   q = 0.7842
Date    TT    R. A. (2000) Decl.     Delta      r    Elong.  Phase     V
2023 10 06    12 26 19.2 +59 19 37   0.04690 0.9805    64.2   113.3    24.1
...
2023 10 21    01 03 45.4 +72 42 41   0.01970 1.0050   117.5    61.5    20.1
...
2023 10 29    00 43 35.4 +16 56 21   0.02298 1.0149   158.6    20.9    19.3
...
2023 11 04    00 42 41.9 -03 55 23   0.03448 1.0209   146.5    32.5    20.5
2023 11 05    00 42 47.9 -06 01 15   0.03670 1.0217   144.3    34.5    20.7
2023 11 06    00 42 57.1 -07 51 48   0.03898 1.0226   142.2    36.4    20.9
...
2023 11 12    00 44 50.9 -15 13 04   0.05345 1.0267   132.2    45.6    21.8
...
2023 11 20    00 49 37.9 -19 40 30   0.07377 1.0302   122.9    53.6    22.8
...
2023 12 05    01 03 14.2 -21 53 41   0.1117  1.0302   110.6    63.6    24.0
M. P. C. Staff               (C) Copyright 2023 MPC           M.P.E.C. 2023-V46
    
    
More information about the Iaude
mailing list